Regional Weather Roundup
Issued by NWS State College, PA

Home | Current Version | Previous Version | Graphics & Text | Print | Product List | Glossary Off
Versions: 1 2 3 4 5 6 7 8 9 10 11 12 13 14 15 16 17 18 19 20 21 22 23 24 25 26 27 28 29 30 31 32 33 34 35 36 37 38 39 40 41 42 43 44 45 46 47 48 49 50

000
ASUS41 KCTP 221803
RWRCTP

REGIONAL WEATHER ROUNDUP
NATIONAL WEATHER SERVICE STATE COLLEGE PA
200 PM EDT MON MAY 22 2017

Note: "fair" indicates few or no clouds below 12,000 feet with no
significant weather and/or obstructions to visibility.

* = STATION THAT DOES NOT REPORT PRECIPITATION /E.G. RAIN...SNOW...ETC/
    THUNDER OR FOG.

PAZ002>004-007>009-013>016-020>023-029>032-221900-
WESTERN PENNSYLVANIA

CITY           SKY/WX    TMP DP  RH WIND       PRES   REMARKS
ERIE           MOSUNNY   58  44  60 W20G28    30.04S
MEADVILLE      PTSUNNY   58  45  62 W13G18    30.03S
FRANKLIN*      PTSUNNY   63  46  55 W13       30.03S
NEW CASTLE     FAIR      62  45  53 SW10G17   30.05F
BEAVER COUNTY  PTSUNNY   63  46  55 W12G18    30.05S
BUTLER*        PTSUNNY   64  50  59 W14       30.03S
PITTSBURGH INT PTSUNNY   65  49  56 W10G20    30.03S
PITTSBURGH     CLOUDY    65  47  52 W13G22    30.02F
INDIANA*       NOT AVBL
LATROBE        MOSUNNY   66  55  68 W17       30.03S
WASHINGTON CO* CLOUDY    64  50  59 W9G18     30.07S
$$

PAZ004>006-010>012-017>019-024>028-033>037-041-042-045-046-049>053-221900-
CENTRAL PENNSYLVANIA

CITY           SKY/WX    TMP DP  RH WIND       PRES   REMARKS
BRADFORD       MOSUNNY   66  51  58 W12G18    29.97F
DUBOIS         PTSUNNY   66  52  60 W13G23    29.98F
CLEARFIELD     MOSUNNY   69  57  65 SW13      29.97F
JOHNSTOWN      PTSUNNY   64  53  67 W13G23    30.02F
ALTOONA        MOSUNNY   75  58  55 W10G18    29.99F
STATE COLLEGE  CLOUDY    64  59  82 SW6       29.98F
WILLIAMSPORT   CLOUDY    62  56  80 VRB3      29.99F
SELINSGROVE    CLOUDY    62  56  80 S6        30.01F
FT INDIANTOWN  CLOUDY    58  58 100 NE3       30.02F
CAPITAL CITY   CLOUDY    61  56  83 E3        30.02F
HARRISBURG     CLOUDY    61  58  90 CALM      30.01F
YORK           CLOUDY    63  61  93 CALM      30.01F
$$

PAZ038>040-043-044-047-048-054-055-060>062-067>071-221900-
EASTERN PENNSYLVANIA

CITY           SKY/WX    TMP DP  RH WIND       PRES   REMARKS
SCRANTON       CLOUDY    61  55  81 S5        30.00F
MOUNT POCONO   FOG       51  51 100 SE7       30.04S VSB 1/4
ALLENTOWN      LGT RAIN  59  55  87 E3        30.04F FOG
QUAKERTOWN*    CLOUDY    57  57 100 E3        30.04F
READING        CLOUDY    60  57  89 CALM      30.01F
LANCASTER      CLOUDY    61  59  93 CALM      30.02F
COATESVILLE    LGT RAIN  61  61 100 E5        30.04S
POTTSTOWN      LGT RAIN  59  58  96 CALM      30.03F FOG
BLUE BELL      CLOUDY    59  59 100 E5        30.04F
DOYLESTOWN     LGT RAIN  58  58 100 CALM      30.03F FOG
WILLOW GROVE   NOT AVBL
NORTH PHILA    LGT RAIN  62  60  93 CALM      30.05F FOG
PHILADELPHIA   CLOUDY    62  60  93 CALM      30.03F
$$



USA.gov is the U.S. government's official web portal to all federal, state and local government web resources and services.